PEGASUS DEB, 24817

Orbit data source: Space-Track

PEGASUS DEB, 24817 is space debris in LEO originally from a launch on Thu, 19 May 1994 UTC launched from the Air Force Western Test Range (AFWTR). Debris objects in space refer to the collection of defunct objects orbiting the Earth. Examples of debris include non-operational satellites, rocket bodies, and fragments generated from explosions, collisions, or faulty payload assembly.

Loading next visibility...
Identifier
24817, 1994-029ABU
Orbit
LEO
Country
Flag of USUS
Related business
Manufacturer
Unknown
Mission
Spacecraft
Bus & Motor
Unknown
Mass
Unknown
Launch date (UTC)
1994-05-19 (32 years ago)
Launch vehicle
Unknown
Launch site
Air Force Western Test Range (AFWTR)
Object type
Payload
Rocket body
Debris
Shape & HBR
Unknown shape, 0.1 m
Radar Cross Section
Small (<0.1 m²)

Expand to show TLE details & history
Last TLE update: 9 hours ago

TLE from 9 hours ago
0 PEGASUS DEB
1 24817U 94029ABU 26062.56677837  .00003912  00000-0  95600-3 0  9999
2 24817  81.6862  98.0734 0361553  32.3429 118.8068 14.19499648505694
Epoch: 2026-03-03T13:36Z
TLE epoch observation values (Epoch: 2026-03-03T13:36:09.651Z)
Latitude
25.04294°
Longitude
-91.2054°
Altitude
962.691 km
Speed
7.304 km/s
True Right ascension
18h 16m 42s
True Declination
24° 54' 54"
Sunlit
Object was in daylight at epoch
Visualization orbit readout
Latitude
Unknown
Longitude
Unknown
Altitude
Unknown
Speed
Unknown
Apparent Right ascension
Unknown
Apparent Declination
Unknown
Sunlit
N/A
Visualization observer readout
Local Sidereal Time
02:00:01
Azimuth
Unknown
Elevation
Unknown
Doppler factor
Unknown
Orbital elements
Apogee altitude
1,084.582 km
Perigee altitude
563.779 km
Semi-major axis
7,202.318 km
Eccentricity
0.03616
Inclination
81.6862°
RAAN
98.0734°
Arg. of periapsis
32.3429°
True anomaly
122.35748°
Mean anomaly
118.8068°
Eccentric anomaly
120.59005°
Mean motion
3.55087 °/min
Orbital period
101.38 mins
BSTAR
0.000956
Loading maneuver chart data...
Computing Atmospheric mass density...
Loading historical data...
Loading historical data...
Loading historical data...
Loading historical data...
Loading historical data...
Loading historical data...
Loading historical data...

Documentation

Showing up to 5 results
|